TimeMDT,TemperatureF,Dew PointF,Humidity,Sea Level PressureIn,VisibilityMPH,Wind Direction,Wind SpeedMPH,Gust SpeedMPH,PrecipitationIn,Events,Conditions,WindDirDegrees,DateUTC
12:53 AM,15.1,10.0,80,30.46,10.0,Calm,Calm,-,N/A,,Overcast,0,2013-03-25 06:53:00
1:16 AM,14.0,10.4,86,30.29,10.0,North,4.6,-,N/A,,Overcast,10,2013-03-25 07:16:00
1:23 AM,14.0,10.4,86,30.29,10.0,North,3.5,-,N/A,,Overcast,360,2013-03-25 07:23:00
1:53 AM,14.0,10.0,84,30.47,8.0,NW,3.5,-,N/A,,Overcast,310,2013-03-25 07:53:00
2:53 AM,14.0,9.0,80,30.47,4.0,North,5.8,-,0.00,Snow,Light Snow,10,2013-03-25 08:53:00
3:46 AM,12.2,8.6,85,30.29,6.0,Calm,Calm,-,0.00,,Haze,0,2013-03-25 09:46:00
3:53 AM,12.9,8.1,81,30.48,6.0,Calm,Calm,-,0.00,,Haze,0,2013-03-25 09:53:00
4:53 AM,14.0,9.0,80,30.47,4.0,Calm,Calm,-,0.00,,Haze,0,2013-03-25 10:53:00
5:06 AM,12.2,8.6,85,30.29,1.8,Calm,Calm,-,0.00,Snow,Light Snow,0,2013-03-25 11:06:00
5:29 AM,12.2,8.6,85,30.29,3.0,West,6.9,-,0.00,Snow,Light Snow,260,2013-03-25 11:29:00
5:49 AM,8.6,5.0,85,30.29,10.0,WSW,6.9,-,0.00,,Scattered Clouds,240,2013-03-25 11:49:00
5:53 AM,6.1,3.0,87,30.50,10.0,WSW,6.9,-,0.00,,Partly Cloudy,250,2013-03-25 11:53:00
6:53 AM,1.9,-0.9,88,30.52,9.0,WSW,8.1,-,N/A,,Clear,250,2013-03-25 12:53:00
7:53 AM,3.0,-0.0,87,30.53,8.0,WSW,8.1,-,N/A,,Clear,250,2013-03-25 13:53:00
8:53 AM,10.9,5.0,77,30.50,9.0,WSW,8.1,-,N/A,,Clear,240,2013-03-25 14:53:00
9:53 AM,16.0,10.0,77,30.49,10.0,West,6.9,-,N/A,,Clear,280,2013-03-25 15:53:00
10:53 AM,21.0,12.0,68,30.48,10.0,WNW,12.7,-,N/A,,Clear,300,2013-03-25 16:53:00
11:53 AM,24.1,12.9,62,30.46,10.0,NW,5.8,-,N/A,,Clear,320,2013-03-25 17:53:00
12:53 PM,28.0,12.9,53,30.43,10.0,NW,5.8,-,N/A,,Clear,310,2013-03-25 18:53:00
1:53 PM,32.0,14.0,48,30.41,10.0,North,6.9,-,N/A,,Clear,10,2013-03-25 19:53:00
2:53 PM,34.0,12.0,40,30.38,10.0,North,8.1,-,N/A,,Clear,360,2013-03-25 20:53:00
3:53 PM,34.0,12.0,40,30.36,10.0,East,4.6,-,N/A,,Clear,100,2013-03-25 21:53:00
4:53 PM,35.1,12.0,39,30.35,10.0,ESE,4.6,-,N/A,,Clear,110,2013-03-25 22:53:00
5:53 PM,35.1,10.9,37,30.36,10.0,ESE,5.8,-,N/A,,Clear,110,2013-03-25 23:53:00
6:53 PM,30.9,12.9,47,30.38,10.0,ESE,6.9,-,N/A,,Clear,120,2013-03-26 00:53:00
7:53 PM,23.0,14.0,68,30.40,10.0,SE,6.9,-,N/A,,Clear,130,2013-03-26 01:53:00
8:53 PM,21.9,14.0,72,30.38,10.0,SSW,3.5,-,N/A,,Clear,200,2013-03-26 02:53:00
9:53 PM,23.0,10.9,60,30.35,10.0,Variable,3.5,-,N/A,,Clear,0,2013-03-26 03:53:00
10:53 PM,24.1,10.0,55,30.33,10.0,Calm,Calm,-,N/A,,Clear,0,2013-03-26 04:53:00
11:53 PM,27.0,8.1,45,30.31,10.0,Calm,Calm,-,N/A,,Clear,0,2013-03-26 05:53:00